Year,Month,Day,Hour,Minute,Value (Times are PST for temperature in C)
2009,07,27,00,00,15.30
2009,07,27,00,01,15.30
2009,07,27,00,02,15.40
2009,07,27,00,03,15.40
2009,07,27,00,04,15.40
2009,07,27,00,05,15.40
2009,07,27,00,06,15.40
2009,07,27,00,07,15.40
2009,07,27,00,08,15.50
2009,07,27,00,09,15.50
2009,07,27,00,10,15.50
2009,07,27,00,11,15.50
2009,07,27,00,12,15.60
2009,07,27,00,13,15.60
2009,07,27,00,14,15.60
2009,07,27,00,15,15.60
2009,07,27,00,16,15.60
2009,07,27,00,17,15.70
2009,07,27,00,18,15.70
2009,07,27,00,19,15.70
2009,07,27,00,20,15.70
2009,07,27,00,21,15.70
2009,07,27,00,22,15.70
2009,07,27,00,23,15.70
2009,07,27,00,24,15.70
2009,07,27,00,25,15.80
2009,07,27,00,26,15.80
2009,07,27,00,27,15.80
2009,07,27,00,28,15.80
2009,07,27,00,29,15.80
2009,07,27,00,30,15.80
2009,07,27,00,31,15.80
2009,07,27,00,32,15.90
2009,07,27,00,33,15.90
2009,07,27,00,34,15.90
2009,07,27,00,35,16.00
2009,07,27,00,36,16.10
2009,07,27,00,37,16.10
2009,07,27,00,38,16.10
2009,07,27,00,39,16.10
2009,07,27,00,40,16.10
2009,07,27,00,41,16.10
2009,07,27,00,42,16.10
2009,07,27,00,43,16.10
2009,07,27,00,44,16.10
2009,07,27,00,45,16.10
2009,07,27,00,46,16.00
2009,07,27,00,47,15.90
2009,07,27,00,48,15.90
2009,07,27,00,49,15.90
2009,07,27,00,50,15.90
2009,07,27,00,51,15.90
2009,07,27,00,52,15.90
2009,07,27,00,53,15.90
2009,07,27,00,54,15.90
2009,07,27,00,55,15.90
2009,07,27,00,56,15.90
2009,07,27,00,57,16.00
2009,07,27,00,58,16.10
2009,07,27,00,59,16.10
2009,07,27,01,00,16.10
2009,07,27,01,01,16.10
2009,07,27,01,02,16.10
2009,07,27,01,03,16.10
2009,07,27,01,04,16.10
2009,07,27,01,05,16.10
2009,07,27,01,06,16.10
2009,07,27,01,07,16.10
2009,07,27,01,08,16.10
2009,07,27,01,09,16.10
2009,07,27,01,10,16.20
2009,07,27,01,11,16.20
2009,07,27,01,12,16.20
2009,07,27,01,13,16.30
2009,07,27,01,14,16.30
2009,07,27,01,15,16.30
2009,07,27,01,16,16.30
2009,07,27,01,17,16.40
2009,07,27,01,18,16.40
2009,07,27,01,19,16.40
2009,07,27,01,20,16.40
2009,07,27,01,21,16.40
2009,07,27,01,22,16.40
2009,07,27,01,23,16.40
2009,07,27,01,24,16.30
2009,07,27,01,25,16.20
2009,07,27,01,26,16.10
2009,07,27,01,27,16.00
2009,07,27,01,28,15.80
2009,07,27,01,29,15.60
2009,07,27,01,30,15.50
2009,07,27,01,31,15.30
2009,07,27,01,32,15.20
2009,07,27,01,33,15.10
2009,07,27,01,34,15.00
2009,07,27,01,35,14.90
2009,07,27,01,36,14.80
2009,07,27,01,37,14.60
2009,07,27,01,38,14.60
2009,07,27,01,39,14.50
2009,07,27,01,40,14.40
2009,07,27,01,41,14.40
2009,07,27,01,42,14.30
2009,07,27,01,43,14.30
2009,07,27,01,44,14.20
2009,07,27,01,45,14.20
2009,07,27,01,46,14.20
2009,07,27,01,47,14.20
2009,07,27,01,48,14.20
2009,07,27,01,49,14.20
2009,07,27,01,50,14.10
2009,07,27,01,51,14.10
2009,07,27,01,52,14.10
2009,07,27,01,53,14.00
2009,07,27,01,54,14.00
2009,07,27,01,55,14.00
2009,07,27,01,56,14.00
2009,07,27,01,57,14.00
2009,07,27,01,58,14.00
2009,07,27,01,59,14.00
2009,07,27,02,00,14.00
2009,07,27,02,01,14.00
2009,07,27,02,02,14.00
2009,07,27,02,03,14.00
2009,07,27,02,04,14.00
2009,07,27,02,05,14.00
2009,07,27,02,06,14.00
2009,07,27,02,07,14.00
2009,07,27,02,08,14.10
2009,07,27,02,09,14.20
2009,07,27,02,10,14.20
2009,07,27,02,11,14.30
2009,07,27,02,12,14.40
2009,07,27,02,13,14.40
2009,07,27,02,14,14.40
2009,07,27,02,15,14.50
2009,07,27,02,16,14.50
2009,07,27,02,17,14.50
2009,07,27,02,18,14.50
2009,07,27,02,19,14.50
2009,07,27,02,20,14.50
2009,07,27,02,21,14.60
2009,07,27,02,22,14.60
2009,07,27,02,23,14.70
2009,07,27,02,24,14.70
2009,07,27,02,25,14.80
2009,07,27,02,26,14.90
2009,07,27,02,27,15.00
2009,07,27,02,28,15.00
2009,07,27,02,29,15.10
2009,07,27,02,30,15.20
2009,07,27,02,31,15.30
2009,07,27,02,32,15.50
2009,07,27,02,33,15.60
2009,07,27,02,34,15.60
2009,07,27,02,35,15.70
2009,07,27,02,36,15.80
2009,07,27,02,37,15.80
2009,07,27,02,38,15.90
2009,07,27,02,39,16.00
2009,07,27,02,40,16.10
2009,07,27,02,41,16.10
2009,07,27,02,42,16.10
2009,07,27,02,43,16.10
2009,07,27,02,44,16.10
2009,07,27,02,45,16.10
2009,07,27,02,46,16.10
2009,07,27,02,47,16.10
2009,07,27,02,48,16.10
2009,07,27,02,49,16.10
2009,07,27,02,50,16.10
2009,07,27,02,51,16.10
2009,07,27,02,52,16.10
2009,07,27,02,53,16.10
2009,07,27,02,54,16.10
2009,07,27,02,55,16.10
2009,07,27,02,56,16.10
2009,07,27,02,57,16.10
2009,07,27,02,58,16.10
2009,07,27,02,59,16.00
2009,07,27,03,00,15.90
2009,07,27,03,01,15.90
2009,07,27,03,02,15.90
2009,07,27,03,03,15.90
2009,07,27,03,04,15.90
2009,07,27,03,05,15.80
2009,07,27,03,06,15.80
2009,07,27,03,07,15.80
2009,07,27,03,08,15.80
2009,07,27,03,09,15.80
2009,07,27,03,10,15.70
2009,07,27,03,11,15.70
2009,07,27,03,12,15.60
2009,07,27,03,13,15.50
2009,07,27,03,14,15.50
2009,07,27,03,15,15.40
2009,07,27,03,16,15.40
2009,07,27,03,17,15.40
2009,07,27,03,18,15.30
2009,07,27,03,19,15.30
2009,07,27,03,20,15.30
2009,07,27,03,21,15.30
2009,07,27,03,22,15.30
2009,07,27,03,23,15.30
2009,07,27,03,24,15.30
2009,07,27,03,25,15.20
2009,07,27,03,26,15.20
2009,07,27,03,27,15.20
2009,07,27,03,28,15.20
2009,07,27,03,29,15.20
2009,07,27,03,30,15.10
2009,07,27,03,31,15.10
2009,07,27,03,32,15.10
2009,07,27,03,33,15.10
2009,07,27,03,34,15.10
2009,07,27,03,35,15.10
2009,07,27,03,36,15.10
2009,07,27,03,37,15.10
2009,07,27,03,38,15.10
2009,07,27,03,39,15.10
2009,07,27,03,40,15.10
2009,07,27,03,41,15.10
2009,07,27,03,42,15.10
2009,07,27,03,43,15.10
2009,07,27,03,44,15.10
2009,07,27,03,45,15.10
2009,07,27,03,46,15.10
2009,07,27,03,47,15.10
2009,07,27,03,48,15.10
2009,07,27,03,49,15.10
2009,07,27,03,50,15.10
2009,07,27,03,51,15.10
2009,07,27,03,52,15.10
2009,07,27,03,53,15.10
2009,07,27,03,54,15.10
2009,07,27,03,55,15.10
2009,07,27,03,56,15.10
2009,07,27,03,57,15.00
2009,07,27,03,58,15.00
2009,07,27,03,59,15.00
2009,07,27,04,00,15.00
2009,07,27,04,01,15.00
2009,07,27,04,02,15.00
2009,07,27,04,03,15.00
2009,07,27,04,04,15.00
2009,07,27,04,05,15.00
2009,07,27,04,06,15.00
2009,07,27,04,07,15.00
2009,07,27,04,08,15.00
2009,07,27,04,09,15.00
2009,07,27,04,10,15.00
2009,07,27,04,11,15.00
2009,07,27,04,12,15.00
2009,07,27,04,13,15.00
2009,07,27,04,14,15.00
2009,07,27,04,15,15.10
2009,07,27,04,16,15.10
2009,07,27,04,17,15.10
2009,07,27,04,18,15.20
2009,07,27,04,19,15.20
2009,07,27,04,20,15.20
2009,07,27,04,21,15.20
2009,07,27,04,22,15.20
2009,07,27,04,23,15.20
2009,07,27,04,24,15.20
2009,07,27,04,25,15.20
2009,07,27,04,26,15.10
2009,07,27,04,27,15.10
2009,07,27,04,28,15.00
2009,07,27,04,29,15.00
2009,07,27,04,30,14.90
2009,07,27,04,31,14.90
2009,07,27,04,32,14.80
2009,07,27,04,33,14.80
2009,07,27,04,34,14.80
2009,07,27,04,35,14.80
2009,07,27,04,36,14.80
2009,07,27,04,37,14.70
2009,07,27,04,38,14.70
2009,07,27,04,39,14.70
2009,07,27,04,40,14.60
2009,07,27,04,41,14.50
2009,07,27,04,42,14.50
2009,07,27,04,43,14.40
2009,07,27,04,44,14.30
2009,07,27,04,45,14.20
2009,07,27,04,46,14.20
2009,07,27,04,47,14.20
2009,07,27,04,48,14.10
2009,07,27,04,49,14.00
2009,07,27,04,50,14.00
2009,07,27,04,51,14.00
2009,07,27,04,52,13.90
2009,07,27,04,53,13.90
2009,07,27,04,54,13.90
2009,07,27,04,55,13.90
2009,07,27,04,56,13.90
2009,07,27,04,57,13.90
2009,07,27,04,58,13.90
2009,07,27,04,59,13.90
2009,07,27,05,00,13.90
2009,07,27,05,01,13.90
2009,07,27,05,02,13.90
2009,07,27,05,03,13.90
2009,07,27,05,04,13.90
2009,07,27,05,05,13.90
2009,07,27,05,06,13.90
2009,07,27,05,07,14.00
2009,07,27,05,08,14.00
2009,07,27,05,09,14.10
2009,07,27,05,10,14.10
2009,07,27,05,11,14.20
2009,07,27,05,12,14.20
2009,07,27,05,13,14.20
2009,07,27,05,14,14.20
2009,07,27,05,15,14.20
2009,07,27,05,16,14.30
2009,07,27,05,17,14.30
2009,07,27,05,18,14.40
2009,07,27,05,19,14.40
2009,07,27,05,20,14.40
2009,07,27,05,21,14.50
2009,07,27,05,22,14.50
2009,07,27,05,23,14.50
2009,07,27,05,24,14.50
2009,07,27,05,25,14.60
2009,07,27,05,26,14.60
2009,07,27,05,27,14.60
2009,07,27,05,28,14.60
2009,07,27,05,29,14.70
2009,07,27,05,30,14.70
2009,07,27,05,31,14.70
2009,07,27,05,32,14.80
2009,07,27,05,33,14.80
2009,07,27,05,34,14.80
2009,07,27,05,35,14.80
2009,07,27,05,36,14.80
2009,07,27,05,37,14.80
2009,07,27,05,38,14.90
2009,07,27,05,39,14.90
2009,07,27,05,40,14.90
2009,07,27,05,41,14.90
2009,07,27,05,42,14.90
2009,07,27,05,43,14.90
2009,07,27,05,44,15.00
2009,07,27,05,45,15.00
2009,07,27,05,46,15.00
2009,07,27,05,47,15.00
2009,07,27,05,48,15.00
2009,07,27,05,49,15.10
2009,07,27,05,50,15.10
2009,07,27,05,51,15.10
2009,07,27,05,52,15.10
2009,07,27,05,53,15.10
2009,07,27,05,54,15.10
2009,07,27,05,55,15.20
2009,07,27,05,56,15.20
2009,07,27,05,57,15.20
2009,07,27,05,58,15.30
2009,07,27,05,59,15.30
2009,07,27,06,00,15.30
2009,07,27,06,01,15.30
2009,07,27,06,02,15.30
2009,07,27,06,03,15.30
2009,07,27,06,04,15.30
2009,07,27,06,05,15.30
2009,07,27,06,06,15.30
2009,07,27,06,07,15.30
2009,07,27,06,08,15.40
2009,07,27,06,09,15.40
2009,07,27,06,10,15.50
2009,07,27,06,11,15.50
2009,07,27,06,12,15.50
2009,07,27,06,13,15.50
2009,07,27,06,14,15.60
2009,07,27,06,15,15.60
2009,07,27,06,16,15.70
2009,07,27,06,17,15.70
2009,07,27,06,18,15.80
2009,07,27,06,19,15.80
2009,07,27,06,20,15.80
2009,07,27,06,21,15.90
2009,07,27,06,22,15.90
2009,07,27,06,23,15.90
2009,07,27,06,24,16.00
2009,07,27,06,25,16.10
2009,07,27,06,26,16.10
2009,07,27,06,27,16.10
2009,07,27,06,28,16.10
2009,07,27,06,29,16.10
2009,07,27,06,30,16.10
2009,07,27,06,31,16.10
2009,07,27,06,32,16.10
2009,07,27,06,33,16.10
2009,07,27,06,34,16.00
2009,07,27,06,35,16.00
2009,07,27,06,36,16.10
2009,07,27,06,37,16.10
2009,07,27,06,38,16.10
2009,07,27,06,39,16.10
2009,07,27,06,40,16.10
2009,07,27,06,41,16.10
2009,07,27,06,42,16.10
2009,07,27,06,43,16.10
2009,07,27,06,44,16.10
2009,07,27,06,45,16.10
2009,07,27,06,46,16.20
2009,07,27,06,47,16.20
2009,07,27,06,48,16.30
2009,07,27,06,49,16.30
2009,07,27,06,50,16.30
2009,07,27,06,51,16.40
2009,07,27,06,52,16.40
2009,07,27,06,53,16.40
2009,07,27,06,54,16.40
2009,07,27,06,55,16.50
2009,07,27,06,56,16.60
2009,07,27,06,57,16.60
2009,07,27,06,58,16.60
2009,07,27,06,59,16.50
2009,07,27,07,00,16.40
2009,07,27,07,01,16.30
2009,07,27,07,02,16.20
2009,07,27,07,03,16.20
2009,07,27,07,04,16.10
2009,07,27,07,05,16.00
2009,07,27,07,06,15.90
2009,07,27,07,07,15.80
2009,07,27,07,08,15.80
2009,07,27,07,09,15.80
2009,07,27,07,10,15.80
2009,07,27,07,11,15.70
2009,07,27,07,12,15.60
2009,07,27,07,13,15.50
2009,07,27,07,14,15.40
2009,07,27,07,15,15.30
2009,07,27,07,16,15.20
2009,07,27,07,17,15.10
2009,07,27,07,18,15.00
2009,07,27,07,19,15.00
2009,07,27,07,20,14.90
2009,07,27,07,21,14.80
2009,07,27,07,22,14.80
2009,07,27,07,23,14.80
2009,07,27,07,24,14.70
2009,07,27,07,25,14.60
2009,07,27,07,26,14.60
2009,07,27,07,27,14.60
2009,07,27,07,28,14.60
2009,07,27,07,29,14.60
2009,07,27,07,30,14.60
2009,07,27,07,31,14.70
2009,07,27,07,32,14.70
2009,07,27,07,33,14.70
2009,07,27,07,34,14.70
2009,07,27,07,35,14.70
2009,07,27,07,36,14.70
2009,07,27,07,37,14.70
2009,07,27,07,38,14.70
2009,07,27,07,39,14.70
2009,07,27,07,40,14.80
2009,07,27,07,41,14.80
2009,07,27,07,42,14.80
2009,07,27,07,43,14.70
2009,07,27,07,44,14.70
2009,07,27,07,45,14.80
2009,07,27,07,46,14.80
2009,07,27,07,47,14.80
2009,07,27,07,48,14.80
2009,07,27,07,49,14.80
2009,07,27,07,50,14.80
2009,07,27,07,51,14.90
2009,07,27,07,52,14.90
2009,07,27,07,53,15.00
2009,07,27,07,54,15.00
2009,07,27,07,55,15.10
2009,07,27,07,56,15.10
2009,07,27,07,57,15.10
2009,07,27,07,58,15.10
2009,07,27,07,59,15.20
2009,07,27,08,00,15.20
2009,07,27,08,01,15.30
2009,07,27,08,02,15.30
2009,07,27,08,03,15.40
2009,07,27,08,04,15.50
2009,07,27,08,05,15.60
2009,07,27,08,06,15.70
2009,07,27,08,07,15.80
2009,07,27,08,08,15.90
2009,07,27,08,09,16.00
2009,07,27,08,10,16.10
2009,07,27,08,11,16.10
2009,07,27,08,12,16.20
2009,07,27,08,13,16.30
2009,07,27,08,14,16.40
2009,07,27,08,15,16.40
2009,07,27,08,16,16.40
2009,07,27,08,17,16.50
2009,07,27,08,18,16.60
2009,07,27,08,19,16.60
2009,07,27,08,20,16.60
2009,07,27,08,21,16.60
2009,07,27,08,22,16.60
2009,07,27,08,23,16.60
2009,07,27,08,24,16.60
2009,07,27,08,25,16.60
2009,07,27,08,26,16.70
2009,07,27,08,27,16.70
2009,07,27,08,28,16.70
2009,07,27,08,29,16.80
2009,07,27,08,30,16.80
2009,07,27,08,31,16.90
2009,07,27,08,32,16.90
2009,07,27,08,33,16.90
2009,07,27,08,34,16.90
2009,07,27,08,35,16.90
2009,07,27,08,36,16.90
2009,07,27,08,37,16.90
2009,07,27,08,38,16.90
2009,07,27,08,39,16.90
2009,07,27,08,40,16.90
2009,07,27,08,41,17.00
2009,07,27,08,42,17.00
2009,07,27,08,43,17.10
2009,07,27,08,44,17.10
2009,07,27,08,45,17.20
2009,07,27,08,46,17.30
2009,07,27,08,47,17.40
2009,07,27,08,48,17.50
2009,07,27,08,49,17.50
2009,07,27,08,50,17.60
2009,07,27,08,51,17.60
2009,07,27,08,52,17.60
2009,07,27,08,53,17.70
2009,07,27,08,54,17.80
2009,07,27,08,55,17.80
2009,07,27,08,56,17.90
2009,07,27,08,57,17.90
2009,07,27,08,58,17.90
2009,07,27,08,59,18.00
2009,07,27,09,00,18.10
2009,07,27,09,01,18.10
2009,07,27,09,02,18.20
2009,07,27,09,03,18.20
2009,07,27,09,04,18.20
2009,07,27,09,05,18.20
2009,07,27,09,06,18.20
2009,07,27,09,07,18.20
2009,07,27,09,08,18.20
2009,07,27,09,09,18.20
2009,07,27,09,10,18.20
2009,07,27,09,11,18.20
2009,07,27,09,12,18.20
2009,07,27,09,13,18.10
2009,07,27,09,14,18.10
2009,07,27,09,15,18.10
2009,07,27,09,16,18.10
2009,07,27,09,17,18.10
2009,07,27,09,18,18.00
2009,07,27,09,19,17.90
2009,07,27,09,20,17.90
2009,07,27,09,21,17.80
2009,07,27,09,22,17.80
2009,07,27,09,23,17.70
2009,07,27,09,24,17.70
2009,07,27,09,25,17.80
2009,07,27,09,26,17.90
2009,07,27,09,27,17.80
2009,07,27,09,28,17.70
2009,07,27,09,29,17.60
2009,07,27,09,30,17.50
2009,07,27,09,31,17.60
2009,07,27,09,32,17.60
2009,07,27,09,33,17.60
2009,07,27,09,34,17.70
2009,07,27,09,35,17.70
2009,07,27,09,36,17.80
2009,07,27,09,37,17.90
2009,07,27,09,38,17.90
2009,07,27,09,39,17.90
2009,07,27,09,40,17.90
2009,07,27,09,41,17.90
2009,07,27,09,42,17.90
2009,07,27,09,43,17.90
2009,07,27,09,44,17.90
2009,07,27,09,45,17.90
2009,07,27,09,46,17.90
2009,07,27,09,47,17.90
2009,07,27,09,48,17.90
2009,07,27,09,49,17.90
2009,07,27,09,50,17.90
2009,07,27,09,51,17.90
2009,07,27,09,52,17.90
2009,07,27,09,53,17.90
2009,07,27,09,54,18.00
2009,07,27,09,55,18.10
2009,07,27,09,56,18.20
2009,07,27,09,57,18.30
2009,07,27,09,58,18.50
2009,07,27,09,59,18.60
2009,07,27,10,00,18.70
2009,07,27,10,01,18.80
2009,07,27,10,02,18.90
2009,07,27,10,03,18.80
2009,07,27,10,04,18.90
2009,07,27,10,05,18.90
2009,07,27,10,06,18.90
2009,07,27,10,07,19.00
2009,07,27,10,08,19.10
2009,07,27,10,09,19.10
2009,07,27,10,10,19.10
2009,07,27,10,11,19.20
2009,07,27,10,12,19.30
2009,07,27,10,13,19.50
2009,07,27,10,14,19.50
2009,07,27,10,15,19.60
2009,07,27,10,16,19.60
2009,07,27,10,17,19.70
2009,07,27,10,18,19.90
2009,07,27,10,19,19.90
2009,07,27,10,20,20.00
2009,07,27,10,21,20.10
2009,07,27,10,22,20.20
2009,07,27,10,23,20.20
2009,07,27,10,24,20.20
2009,07,27,10,25,20.20
2009,07,27,10,26,20.20
2009,07,27,10,27,20.20
2009,07,27,10,28,20.20
2009,07,27,10,29,20.20
2009,07,27,10,30,20.20
2009,07,27,10,31,20.40
2009,07,27,10,32,20.50
2009,07,27,10,33,20.70
2009,07,27,10,34,20.80
2009,07,27,10,35,20.90
2009,07,27,10,36,21.10
2009,07,27,10,37,21.20
2009,07,27,10,38,21.20
2009,07,27,10,39,21.30
2009,07,27,10,40,21.30
2009,07,27,10,41,21.30
2009,07,27,10,42,21.40
2009,07,27,10,43,21.40
2009,07,27,10,44,21.50
2009,07,27,10,45,21.50
2009,07,27,10,46,21.40
2009,07,27,10,47,21.40
2009,07,27,10,48,21.40
2009,07,27,10,49,21.30
2009,07,27,10,50,21.30
2009,07,27,10,51,21.30
2009,07,27,10,52,21.30
2009,07,27,10,53,21.30
2009,07,27,10,54,21.30
2009,07,27,10,55,21.40
2009,07,27,10,56,21.50
2009,07,27,10,57,21.60
2009,07,27,10,58,21.60
2009,07,27,10,59,21.60
2009,07,27,11,00,21.60
2009,07,27,11,01,21.60
2009,07,27,11,02,21.50
2009,07,27,11,03,21.40
2009,07,27,11,04,21.40
2009,07,27,11,05,21.30
2009,07,27,11,06,21.30
2009,07,27,11,07,21.30
2009,07,27,11,08,21.40
2009,07,27,11,09,21.50
2009,07,27,11,10,21.60
2009,07,27,11,11,21.60
2009,07,27,11,12,21.70
2009,07,27,11,13,21.70
2009,07,27,11,14,21.70
2009,07,27,11,15,21.70
2009,07,27,11,16,21.70
2009,07,27,11,17,21.70
2009,07,27,11,18,21.60
2009,07,27,11,19,21.60
2009,07,27,11,20,21.60
2009,07,27,11,21,21.60
2009,07,27,11,22,21.60
2009,07,27,11,23,21.60
2009,07,27,11,24,21.60
2009,07,27,11,25,21.60
2009,07,27,11,26,21.60
2009,07,27,11,27,21.50
2009,07,27,11,28,21.30
2009,07,27,11,29,21.20
2009,07,27,11,30,21.10
2009,07,27,11,31,21.00
2009,07,27,11,32,21.00
2009,07,27,11,33,20.90
2009,07,27,11,34,20.80
2009,07,27,11,35,20.80
2009,07,27,11,36,20.80
2009,07,27,11,37,20.70
2009,07,27,11,38,20.70
2009,07,27,11,39,20.80
2009,07,27,11,40,20.90
2009,07,27,11,41,20.90
2009,07,27,11,42,20.80
2009,07,27,11,43,20.70
2009,07,27,11,44,20.70
2009,07,27,11,45,20.70
2009,07,27,11,46,20.70
2009,07,27,11,47,20.70
2009,07,27,11,48,20.70
2009,07,27,11,49,20.70
2009,07,27,11,50,20.80
2009,07,27,11,51,21.00
2009,07,27,11,52,21.20
2009,07,27,11,53,21.10
2009,07,27,11,54,21.00
2009,07,27,11,55,20.90
2009,07,27,11,56,20.80
2009,07,27,11,57,20.80
2009,07,27,11,58,20.90
2009,07,27,11,59,20.90
2009,07,27,12,00,21.10
2009,07,27,12,01,21.30
2009,07,27,12,02,21.30
2009,07,27,12,03,21.40
2009,07,27,12,04,21.60
2009,07,27,12,05,21.90
2009,07,27,12,06,21.90
2009,07,27,12,07,21.90
2009,07,27,12,08,21.80
2009,07,27,12,09,21.70
2009,07,27,12,10,21.60
2009,07,27,12,11,21.50
2009,07,27,12,12,21.60
2009,07,27,12,13,21.70
2009,07,27,12,14,21.60
2009,07,27,12,15,21.60
2009,07,27,12,16,21.60
2009,07,27,12,17,21.60
2009,07,27,12,18,21.60
2009,07,27,12,19,21.60
2009,07,27,12,20,21.60
2009,07,27,12,21,21.70
2009,07,27,12,22,21.80
2009,07,27,12,23,21.90
2009,07,27,12,24,22.00
2009,07,27,12,25,22.10
2009,07,27,12,26,22.20
2009,07,27,12,27,22.10
2009,07,27,12,28,22.10
2009,07,27,12,29,22.10
2009,07,27,12,30,22.00
2009,07,27,12,31,21.90
2009,07,27,12,32,21.90
2009,07,27,12,33,21.90
2009,07,27,12,34,21.90
2009,07,27,12,35,21.90
2009,07,27,12,36,21.90
2009,07,27,12,37,22.00
2009,07,27,12,38,22.10
2009,07,27,12,39,22.20
2009,07,27,12,40,22.40
2009,07,27,12,41,22.50
2009,07,27,12,42,22.60
2009,07,27,12,43,22.60
2009,07,27,12,44,22.60
2009,07,27,12,45,22.60
2009,07,27,12,46,22.50
2009,07,27,12,47,22.40
2009,07,27,12,48,22.30
2009,07,27,12,49,22.30
2009,07,27,12,50,22.40
2009,07,27,12,51,22.30
2009,07,27,12,52,22.30
2009,07,27,12,53,22.40
2009,07,27,12,54,22.30
2009,07,27,12,55,22.50
2009,07,27,12,56,22.60
2009,07,27,12,57,22.80
2009,07,27,12,58,23.00
2009,07,27,12,59,23.20
2009,07,27,13,00,23.30
2009,07,27,13,01,23.60
2009,07,27,13,02,23.80
2009,07,27,13,03,23.80
2009,07,27,13,04,23.80
2009,07,27,13,05,23.60
2009,07,27,13,06,23.40
2009,07,27,13,07,23.30
2009,07,27,13,08,23.20
2009,07,27,13,09,23.20
2009,07,27,13,10,23.30
2009,07,27,13,11,23.30
2009,07,27,13,12,23.20
2009,07,27,13,13,23.10
2009,07,27,13,14,23.20
2009,07,27,13,15,23.30
2009,07,27,13,16,23.30
2009,07,27,13,17,23.30
2009,07,27,13,18,23.10
2009,07,27,13,19,23.10
2009,07,27,13,20,22.90
2009,07,27,13,21,22.90
2009,07,27,13,22,23.00
2009,07,27,13,23,23.10
2009,07,27,13,24,23.00
2009,07,27,13,25,22.80
2009,07,27,13,26,22.80
2009,07,27,13,27,22.80
2009,07,27,13,28,22.90
2009,07,27,13,29,23.00
2009,07,27,13,30,23.10
2009,07,27,13,31,23.20
2009,07,27,13,32,23.20
2009,07,27,13,33,23.20
2009,07,27,13,34,23.10
2009,07,27,13,35,22.90
2009,07,27,13,36,23.00
2009,07,27,13,37,23.20
2009,07,27,13,38,23.20
2009,07,27,13,39,23.00
2009,07,27,13,40,22.90
2009,07,27,13,41,22.90
2009,07,27,13,42,23.10
2009,07,27,13,43,23.20
2009,07,27,13,44,23.30
2009,07,27,13,45,23.30
2009,07,27,13,46,23.20
2009,07,27,13,47,23.00
2009,07,27,13,48,22.90
2009,07,27,13,49,22.90
2009,07,27,13,50,23.00
2009,07,27,13,51,23.10
2009,07,27,13,52,23.10
2009,07,27,13,53,23.10
2009,07,27,13,54,23.10
2009,07,27,13,55,23.30
2009,07,27,13,56,23.40
2009,07,27,13,57,23.70
2009,07,27,13,58,23.70
2009,07,27,13,59,23.60
2009,07,27,14,00,23.60
2009,07,27,14,01,23.60
2009,07,27,14,02,23.80
2009,07,27,14,03,23.90
2009,07,27,14,04,24.00
2009,07,27,14,05,24.10
2009,07,27,14,06,24.00
2009,07,27,14,07,23.80
2009,07,27,14,08,23.60
2009,07,27,14,09,23.60
2009,07,27,14,10,23.60
2009,07,27,14,11,23.60
2009,07,27,14,12,23.50
2009,07,27,14,13,23.60
2009,07,27,14,14,23.70
2009,07,27,14,15,23.80
2009,07,27,14,16,23.70
2009,07,27,14,17,23.60
2009,07,27,14,18,23.60
2009,07,27,14,19,23.60
2009,07,27,14,20,23.70
2009,07,27,14,21,23.80
2009,07,27,14,22,24.10
2009,07,27,14,23,24.10
2009,07,27,14,24,24.10
2009,07,27,14,25,24.10
2009,07,27,14,26,24.20
2009,07,27,14,27,24.30
2009,07,27,14,28,24.30
2009,07,27,14,29,24.40
2009,07,27,14,30,24.40
2009,07,27,14,31,24.50
2009,07,27,14,32,24.50
2009,07,27,14,33,24.60
2009,07,27,14,34,24.80
2009,07,27,14,35,24.90
2009,07,27,14,36,25.00
2009,07,27,14,37,25.10
2009,07,27,14,38,25.30
2009,07,27,14,39,25.40
2009,07,27,14,40,25.50
2009,07,27,14,41,25.60
2009,07,27,14,42,25.70
2009,07,27,14,43,25.70
2009,07,27,14,44,25.70
2009,07,27,14,45,25.70
2009,07,27,14,46,25.70
2009,07,27,14,47,25.50
2009,07,27,14,48,25.50
2009,07,27,14,49,25.50
2009,07,27,14,50,25.50
2009,07,27,14,51,25.50
2009,07,27,14,52,25.60
2009,07,27,14,53,25.60
2009,07,27,14,54,25.60
2009,07,27,14,55,25.60
2009,07,27,14,56,25.60
2009,07,27,14,57,25.70
2009,07,27,14,58,25.70
2009,07,27,14,59,25.60
2009,07,27,15,00,25.50
2009,07,27,15,01,25.40
2009,07,27,15,02,25.40
2009,07,27,15,03,25.40
2009,07,27,15,04,25.40
2009,07,27,15,05,25.50
2009,07,27,15,06,25.50
2009,07,27,15,07,25.40
2009,07,27,15,08,25.30
2009,07,27,15,09,25.30
2009,07,27,15,10,25.30
2009,07,27,15,11,25.30
2009,07,27,15,12,25.30
2009,07,27,15,13,25.40
2009,07,27,15,14,25.50
2009,07,27,15,15,25.60
2009,07,27,15,16,25.50
2009,07,27,15,17,25.50
2009,07,27,15,18,25.40
2009,07,27,15,19,25.30
2009,07,27,15,20,25.40
2009,07,27,15,21,25.30
2009,07,27,15,22,25.30
2009,07,27,15,23,25.20
2009,07,27,15,24,25.20
2009,07,27,15,25,25.30
2009,07,27,15,26,25.40
2009,07,27,15,27,25.50
2009,07,27,15,28,25.60
2009,07,27,15,29,25.60
2009,07,27,15,30,25.60
2009,07,27,15,31,25.70
2009,07,27,15,32,25.90
2009,07,27,15,33,26.00
2009,07,27,15,34,26.10
2009,07,27,15,35,26.30
2009,07,27,15,36,26.50
2009,07,27,15,37,26.60
2009,07,27,15,38,26.70
2009,07,27,15,39,26.80
2009,07,27,15,40,26.70
2009,07,27,15,41,26.60
2009,07,27,15,42,26.60
2009,07,27,15,43,26.60
2009,07,27,15,44,26.60
2009,07,27,15,45,26.60
2009,07,27,15,46,26.60
2009,07,27,15,47,26.50
2009,07,27,15,48,26.50
2009,07,27,15,49,26.60
2009,07,27,15,50,26.60
2009,07,27,15,51,26.50
2009,07,27,15,52,26.40
2009,07,27,15,53,26.40
2009,07,27,15,54,26.60
2009,07,27,15,55,26.60
2009,07,27,15,56,26.60
2009,07,27,15,57,26.60
2009,07,27,15,58,26.60
2009,07,27,15,59,26.60
2009,07,27,16,00,26.60
2009,07,27,16,01,26.60
2009,07,27,16,02,26.70
2009,07,27,16,03,26.90
2009,07,27,16,04,27.00
2009,07,27,16,05,27.10
2009,07,27,16,06,27.10
2009,07,27,16,07,27.20
2009,07,27,16,08,27.20
2009,07,27,16,09,27.20
2009,07,27,16,10,27.20
2009,07,27,16,11,27.20
2009,07,27,16,12,27.20
2009,07,27,16,13,27.30
2009,07,27,16,14,27.30
2009,07,27,16,15,27.40
2009,07,27,16,16,27.50
2009,07,27,16,17,27.60
2009,07,27,16,18,27.60
2009,07,27,16,19,27.70
2009,07,27,16,20,27.80
2009,07,27,16,21,27.80
2009,07,27,16,22,27.80
2009,07,27,16,23,27.80
2009,07,27,16,24,27.80
2009,07,27,16,25,27.80
2009,07,27,16,26,27.70
2009,07,27,16,27,27.70
2009,07,27,16,28,27.70
2009,07,27,16,29,27.70
2009,07,27,16,30,27.80
2009,07,27,16,31,27.90
2009,07,27,16,32,27.90
2009,07,27,16,33,28.00
2009,07,27,16,34,28.10
2009,07,27,16,35,28.20
2009,07,27,16,36,28.30
2009,07,27,16,37,28.40
2009,07,27,16,38,28.40
2009,07,27,16,39,28.40
2009,07,27,16,40,28.30
2009,07,27,16,41,28.10
2009,07,27,16,42,28.20
2009,07,27,16,43,28.20
2009,07,27,16,44,28.20
2009,07,27,16,45,28.00
2009,07,27,16,46,27.80
2009,07,27,16,47,27.60
2009,07,27,16,48,27.60
2009,07,27,16,49,27.60
2009,07,27,16,50,27.70
2009,07,27,16,51,27.80
2009,07,27,16,52,27.90
2009,07,27,16,53,28.00
2009,07,27,16,54,28.10
2009,07,27,16,55,28.30
2009,07,27,16,56,28.40
2009,07,27,16,57,28.50
2009,07,27,16,58,28.70
2009,07,27,16,59,28.80
2009,07,27,17,00,28.90
2009,07,27,17,01,28.90
2009,07,27,17,02,28.90
2009,07,27,17,03,28.90
2009,07,27,17,04,28.90
2009,07,27,17,05,28.90
2009,07,27,17,06,28.70
2009,07,27,17,07,28.60
2009,07,27,17,08,28.40
2009,07,27,17,09,28.40
2009,07,27,17,10,28.30
2009,07,27,17,11,28.20
2009,07,27,17,12,28.20
2009,07,27,17,13,28.20
2009,07,27,17,14,28.30
2009,07,27,17,15,28.30
2009,07,27,17,16,28.30
2009,07,27,17,17,28.30
2009,07,27,17,18,28.20
2009,07,27,17,19,28.10